Content
SEND FEEDBACK

Daily
Averages
Monthly
Summary
United States of America

RAPID CITY, SOUTH DAKOTA


Home > North America > United States > South Dakota
Elevation: 3162 feet     Latitude: 44 03N     Longitude: 103 04W

WEATHER
 
SELECT A DAY
Number of Records: 200,329;   Date Range: 1/1/95 - 7/29/14
 
SHARE

PRINT THIS DATA

[ ← Previous Day ]
WEATHER ALMANAC - JANUARY 27, 2013
[ Next Day → ]
[ °C ]   °F
Weather ElementAverageHighLow
Temperature35.8 °F48 °F (12:52 pm)30 °F (2:52 am)
Dewpoint27.1 °F30.2 °F (9:50 pm)21.9 °F (3:52 am)
Humidity72.7 %96 % (9:52 pm)44 % (12:52 pm)
Barometer29.74 in29.81 in (9:52 pm)29.67 in (12:52 pm)
Wind Speed10.3 mph21.9 mph (3:52 pm)
Wind Gust31.1 mph (6:52 pm)
Weather ElementAverage
Visibility10 mi
Wind DirectionWSW (235 °)

Weather ElementTotal
Precipitation---
Heating Degree Days26 (Base 65)
Averaged from 24 records on January 27, 2013
WEATHER CONDITIONS BREAKOUT
WIND DIRECTION BREAKOUT
WEATHER BY HOUR - JANUARY 27, 2013
[ °C ]   °F
Local TimeTemperatureDewpointHumidityBarometerVisibilityWind DirectionWind SpeedGust SpeedPrecipitationEventsConditions
1:52 AM32.0 °F24.1 °F73 %29.75 in10.0 miENE (60°)3.5 mphClear
2:52 AM30.0 °F23.0 °F75 %29.73 in10.0 miCalmClear
3:52 AM30.0 °F21.9 °F72 %29.72 in10.0 miCalmClear
4:52 AM32.0 °F25.0 °F75 %29.73 in10.0 miCalmOvercast
5:52 AM34.0 °F25.0 °F70 %29.73 in10.0 miESE (120°)3.5 mphOvercast
6:52 AM33.1 °F25.0 °F72 %29.74 in10.0 miCalmOvercast
7:52 AM34.0 °F26.1 °F73 %29.73 in10.0 miCalmOvercast
8:52 AM37.0 °F28.0 °F70 %29.72 in10.0 miESE (110°)3.5 mphOvercast
9:52 AM37.0 °F28.0 °F70 %29.72 in10.0 miSE (140°)3.5 mphMostly Cloudy
10:52 AM42.1 °F28.0 °F58 %29.70 in10.0 miNNW (340°)5.8 mphOvercast
11:52 AM46.0 °F28.0 °F50 %29.70 in10.0 miNorth (360°)8.1 mphOvercast
12:52 PM48.0 °F27.0 °F44 %29.67 in10.0 miNorth (360°)16.1 mph23.0 mphMostly Cloudy
1:52 PM48.0 °F27.0 °F44 %29.67 in10.0 miNorth (360°)20.7 mphPartly Cloudy
2:52 PM45.0 °F28.0 °F52 %29.69 in10.0 miNorth (360°)19.6 mphClear
3:52 PM41.0 °F28.9 °F62 %29.72 in10.0 miNorth (360°)21.9 mph25.3 mphClear
4:52 PM36.0 °F28.9 °F76 %29.74 in10.0 miNorth (360°)18.4 mph26.5 mphClear
5:52 PM34.0 °F28.0 °F79 %29.78 in10.0 miNorth (350°)20.7 mph28.8 mphClear
6:52 PM32.0 °F28.0 °F85 %29.78 in10.0 miNorth (350°)21.9 mph31.1 mphClear
7:52 PM32.0 °F28.9 °F88 %29.80 in10.0 miNorth (350°)21.9 mph29.9 mphClear
8:52 PM32.0 °F28.4 °F87 %29.71 in10.0 miNorth (350°)19.6 mph24.2 mphClear
9:50 PM32.0 °F30.2 °F93 %29.73 in10.0 miNorth (350°)11.5 mphPartly Cloudy
9:52 PM30.9 °F30.0 °F96 %29.81 in10.0 miNorth (350°)13.8 mphPartly Cloudy
10:52 PM30.0 °F28.0 °F92 %29.80 in10.0 miNNW (330°)6.9 mphClear
11:52 PM30.0 °F27.0 °F88 %29.81 in10.0 miWest (280°)6.9 mphScattered Clouds
Hourly data recorded from KRAP, located miles away from Rapid City, South Dakota







STORIES FROM OUR PARTNERS